Wetbulb
73.79 75.06 76.17 75.81 75.95 76.53 76.92 76.77 76.80 77.49 77.31 77.14 77.07 77.07 77.35 77.13 77.09 77.02 77.59 76.83 77.09 77.11 76.70 76.75 76.59 76.53 76.88 76.78 76.60 76.60 76.47 76.60 76.53 76.60 76.48 76.39 75.74 75.42 75.31 75.12 76.93 74.92 75.44
74.62 75.50 76.71 76.86 77.27 76.65 76.10 76.73 77.16 77.37 77.36 77.02 77.00 76.93 77.18 76.98 76.97 76.54 77.11 76.76 77.17 76.76 76.70 76.60 76.66 76.61 76.59 76.60 76.36 76.41 76.42 76.05 76.68 76.54 76.54 76.78 76.47 76.14 76.40 76.33 77.32 75.55 75.67
74.49 75.62 76.51 76.86 76.88 77.04 77.02 76.43 76.83 76.96 77.13 77.29 77.10 77.11 77.10 77.16 76.98 76.81 76.85 76.53 76.82 76.57 76.64 76.57 76.32 76.50 76.80 76.36 76.14 75.88 75.53 75.29 75.40 75.37 76.32 73.90 75.84 76.74 76.46 76.54 76.07 75.86 75.53
74.46 75.41 76.30 76.68 75.79 76.17 76.70 76.50 76.38 76.85 77.00 76.84 76.94 76.97 76.80 77.15 77.12 76.62 76.75 76.78 76.91 76.92 76.60 75.76 75.60 75.32 76.07 76.14 76.30 75.78 74.49 73.94 73.34 76.20 75.49 73.42 75.05 76.21 76.06 76.15 75.85 75.70 75.65
74.71 75.52 76.22 75.75 75.31 75.09 75.56 76.10 76.36 76.41 76.35 76.75 76.89 76.23 76.50 77.41 76.53 77.24 76.81 76.72 76.93 76.54 76.36 76.19 76.40 76.10 75.76 76.20 76.07 75.79 75.74 75.62 76.52 76.62 75.53 75.46 75.79 75.49 75.57 75.78 76.32 76.05 75.83
74.71 74.82 76.16 75.77 76.63 76.13 75.54 75.84 76.09 75.79 76.76 76.68 76.80 76.34 76.44 77.11 77.14 76.57 76.46 76.18 76.10 76.29 76.48 76.49 76.56 76.54 75.93 75.84 75.70 75.36 75.31 75.89 77.71 73.52 74.96 74.83 75.54 76.25 76.02 75.04 75.67 76.19 75.96
73.84 75.33 76.37 76.57 76.50 76.22 76.51 75.62 75.71 75.98 76.99 76.76 76.80 76.92 76.89 77.25 77.11 76.56 75.36 76.56 76.88 76.71 76.65 76.95 76.98 76.59 75.68 75.51 75.11 74.79 75.26 76.75 73.76 72.77 73.09 73.91 75.54 75.63 75.63 75.85 74.85 75.48 75.65
72.68 74.75 75.61 76.28 76.23 76.32 76.24 76.33 76.30 76.50 76.80 76.89 76.89 77.35 76.48 76.52 77.19 76.87 76.82 76.82 76.76 77.04 76.88 76.85 76.40 75.87 75.29 75.36 75.05 74.25 75.10 76.54 73.73 72.48 72.70 73.29 75.34 75.07 74.75 74.47 74.30 74.25 74.27
74.40 73.56 74.88 76.11 76.72 76.58 76.19 76.30 76.55 76.32 76.68 76.57 76.86 76.61 77.79 77.73 77.29 77.10 76.74 76.87 76.73 76.68 76.43 76.35 75.96 75.62 75.18 75.28 74.86 73.47 74.27 75.68 74.24 72.77 72.10 72.86 75.40 74.34 74.29 74.38 74.80 75.21 75.41
73.66 74.86 73.89 75.74 76.20 75.91 76.34 76.36 76.22 76.20 76.48 76.12 76.32 76.43 77.14 77.23 77.18 76.59 77.25 77.60 76.51 76.23 76.20 75.95 75.98 75.87 75.29 75.24 74.57 73.96 73.95 75.36 74.45 73.46 72.76 73.29 75.29 75.89 74.12 73.56 73.13 72.97 73.16
72.71 73.09 74.63 74.03 75.25 76.10 75.07 76.29 76.21 76.04 76.65 77.03 76.15 76.59 77.10 75.72 76.07 76.95 76.95 76.90 76.17 75.95 76.15 76.12 75.96 75.93 75.73 76.15 75.97 75.71 75.29 72.76 72.96 73.83 74.76 75.18 74.28 73.14 72.95 72.83 72.67 72.61 72.66
71.03 72.98 74.14 74.49 74.98 74.89 74.55 76.47 76.21 75.01 74.80 74.64 75.42 74.96 77.24 76.33 76.87 75.63 76.76 76.12 75.95 76.10 76.12 75.76 75.34 76.26 76.79 76.13 75.63 76.39 72.60 71.77 72.17 71.95 74.63 75.23 73.52 73.22 72.97 72.67 72.75 72.58 72.50
72.19 72.05 74.26 74.33 75.79 73.59 74.47 74.38 75.23 75.06 74.94 74.91 76.57 75.15 76.31 75.37 75.23 73.38 74.06 75.30 75.88 76.38 74.44 74.79 75.45 75.12 74.72 72.98 71.85 71.96 72.44 72.09 71.50 71.26 73.80 75.05 74.98 73.55 73.25 73.16 72.72 72.70 73.13
71.83 72.17 72.55 74.02 74.72 75.52 73.73 73.74 73.99 74.14 74.51 74.97 76.30 77.62 75.78 75.56 74.28 73.95 73.44 75.13 75.64 76.77 75.92 72.93 73.96 75.37 74.48 74.75 73.63 73.33 72.84 72.30 71.61 71.60 72.79 74.29 74.29 74.29 73.08 72.97 72.97 73.22 73.63
71.60 71.74 73.57 74.41 75.53 75.20 74.61 74.06 74.24 74.45 73.69 74.78 75.23 75.41 74.40 74.48 74.27 74.87 75.27 74.88 77.08 75.83 75.01 76.01 75.04 74.63 74.75 74.36 73.97 74.12 73.32 73.58 72.85 71.37 70.80 73.77 73.71 73.88 74.39 73.85 73.61 74.05 74.48
72.33 72.90 73.38 74.09 75.56 75.55 74.83 75.95 75.05 73.36 74.53 75.47 74.55 75.36 77.05 74.89 76.52 74.38 74.97 74.32 74.75 77.01 76.45 76.12 76.75 74.47 73.99 73.28 74.41 74.18 73.84 73.57 74.44 73.62 72.40 73.06 73.61 73.33 73.25 73.60 74.02 74.53 74.91
72.84 73.14 73.94 74.74 74.54 74.99 75.03 75.22 75.01 74.42 75.07 73.52 75.27 76.65 76.69 76.26 76.70 76.05 74.39 74.26 74.92 76.13 77.02 76.04 75.33 75.09 72.78 72.77 74.09 74.50 73.85 74.36 73.85 74.60 74.27 73.52 73.97 74.07 74.60 74.46 74.57 74.91 75.46
73.32 73.05 74.13 73.44 73.99 74.31 75.27 75.87 74.30 75.12 76.33 74.53 75.05 75.87 76.50 76.54 76.48 77.13 74.55 74.59 75.75 76.95 76.01 74.13 74.75 72.63 73.39 72.55 73.44 73.81 73.61 73.77 74.32 74.75 74.66 75.21 75.26 74.68 75.12 75.18 74.65 74.46 74.93
73.43 73.49 74.11 74.35 73.88 74.97 76.16 76.58 77.33 76.92 74.17 75.85 75.54 75.59 77.29 77.02 77.06 76.54 74.78 76.16 77.46 74.86 74.60 75.00 73.94 78.29 72.42 72.51 72.90 73.55 73.81 73.18 74.63 74.06 74.66 75.19 74.94 75.95 75.54 76.09 76.39 76.00 75.93
73.60 74.20 74.42 74.30 75.61 76.60 75.77 76.30 74.12 75.16 75.56 75.54 76.15 76.14 77.20 76.86 77.09 77.30 76.24 76.31 77.75 75.94 74.26 76.16 78.17 75.16 74.57 73.30 72.06 72.79 73.65 74.10 74.57 74.23 74.14 74.61 75.13 75.93 75.59 76.59 77.47 76.85 76.86
73.74 73.97 74.09 75.01 76.02 75.81 74.71 73.90 73.50 75.28 74.14 75.06 75.12 77.00 77.07 77.46 77.60 77.97 76.61 76.82 77.84 73.71 76.03 76.32 75.56 75.33 74.07 74.02 73.90 71.82 72.80 74.07 74.40 74.18 74.59 75.14 74.52 74.98 75.03 75.19 77.50 77.54 76.84
73.11 74.31 74.18 75.66 76.36 77.01 75.48 76.10 74.94 73.50 76.00 75.04 75.09 76.89 77.39 77.48 77.87 77.22 77.78 76.86 75.83 75.35 76.45 77.12 77.65 73.40 72.89 75.05 74.13 71.16 68.44 70.48 72.39 73.13 74.28 73.89 75.01 75.05 75.32 76.45 77.27 77.89 78.37
72.59 73.86 74.63 76.22 76.24 76.91 75.86 76.74 76.41 76.74 77.77 75.29 76.20 75.39 76.57 77.17 77.44 77.75 76.97 78.41 77.49 78.03 74.64 76.87 76.08 76.87 74.13 74.16 77.53 74.49 69.83 68.31 69.80 72.25 73.53 73.68 75.10 75.01 76.21 76.20 76.12 76.70 77.91
72.85 74.02 75.37 75.81 76.80 76.07 77.96 76.77 77.00 73.59 73.52 74.22 74.69 75.60 77.14 77.32 76.75 76.96 77.17 77.07 78.20 73.85 79.10 76.60 76.39 78.26 78.43 73.79 74.03 74.82 77.19 76.31 71.35 67.61 71.33 72.48 73.72 73.92 75.02 75.20 75.65 76.58 77.98
73.39 73.73 74.70 75.92 77.01 77.22 77.13 76.51 75.34 75.11 74.51 74.68 76.25 76.90 77.43 77.52 77.37 76.84 77.56 77.17 77.53 76.45 78.19 78.32 77.51 78.86 76.54 76.60 75.11 73.79 76.21 73.72 74.13 71.27 70.19 70.43 72.10 74.26 75.59 75.73 75.47 76.14 77.81
72.84 73.30 74.36 75.45 76.29 76.90 76.68 76.17 76.29 74.86 74.77 74.06 75.25 74.90 74.94 75.33 75.93 77.41 77.25 78.07 78.56 78.19 77.55 76.99 78.29 78.00 78.79 78.77 77.26 77.46 75.88 71.11 72.96 73.06 71.30 71.18 72.50 73.67 74.89 76.25 76.31 76.35 76.78
MSLP
1013.37 1014.73 1015.52 1015.73 1015.77 1015.79 1015.82 1015.86 1015.96 1016.05 1016.14 1016.25 1016.30 1016.33 1016.38 1016.43 1016.45 1016.61 1016.59 1016.70 1016.76 1016.87 1016.93 1016.91 1017.00 1017.04 1017.11 1017.19 1017.27 1017.27 1017.19 1017.13 1017.09 1017.29 1017.34 1017.40 1017.35 1017.37 1017.45 1017.37 1016.87 1017.30 1017.87
1013.13 1014.60 1015.62 1015.91 1015.95 1016.03 1016.13 1016.18 1016.21 1016.22 1016.34 1016.50 1016.62 1016.72 1016.71 1016.75 1016.83 1016.92 1016.98 1017.13 1017.18 1017.27 1017.42 1017.38 1017.43 1017.51 1017.59 1017.58 1017.73 1017.67 1017.57 1017.55 1017.47 1017.38 1017.32 1017.63 1017.74 1017.86 1017.90 1017.61 1017.49 1018.09 1018.12
1013.04 1014.74 1015.38 1015.97 1016.11 1016.23 1016.34 1016.39 1016.47 1016.57 1016.69 1016.76 1016.90 1017.00 1017.11 1017.16 1017.23 1017.35 1017.44 1017.57 1017.55 1017.63 1017.75 1017.83 1017.95 1017.90 1017.97 1018.11 1018.03 1017.95 1017.81 1017.77 1017.81 1017.77 1017.31 1017.36 1018.01 1018.13 1018.03 1018.14 1018.34 1018.38 1018.55
1012.81 1013.83 1015.13 1016.29 1016.45 1016.58 1016.63 1016.73 1016.81 1016.84 1016.95 1017.06 1017.18 1017.30 1017.39 1017.51 1017.65 1017.71 1017.83 1017.90 1017.94 1018.00 1018.10 1018.18 1018.26 1018.34 1018.39 1018.40 1018.35 1018.28 1018.05 1018.03 1018.32 1017.73 1017.35 1017.65 1017.86 1018.56 1018.63 1018.76 1018.79 1018.84 1018.93
1013.47 1014.25 1015.91 1016.51 1016.69 1016.86 1016.99 1017.03 1017.01 1017.11 1017.27 1017.32 1017.41 1017.49 1017.82 1017.79 1017.91 1017.94 1018.13 1018.27 1018.32 1018.47 1018.55 1018.59 1018.54 1018.68 1018.85 1018.85 1018.85 1018.74 1018.37 1017.98 1017.64 1017.61 1018.40 1018.48 1018.78 1019.13 1019.15 1019.07 1019.01 1019.12 1019.11
1014.17 1014.79 1016.25 1016.67 1016.86 1017.05 1017.17 1017.30 1017.30 1017.38 1017.43 1017.52 1017.58 1017.71 1017.87 1018.11 1018.13 1018.22 1018.35 1018.58 1018.58 1018.74 1018.77 1018.73 1018.90 1018.98 1019.10 1019.12 1019.19 1019.03 1018.63 1018.18 1017.69 1017.53 1018.26 1018.85 1019.16 1019.43 1019.47 1019.41 1019.44 1019.50 1019.52
1013.90 1014.79 1016.00 1016.92 1017.10 1017.24 1017.40 1017.52 1017.59 1017.59 1017.67 1017.77 1017.81 1017.85 1018.03 1018.24 1018.38 1018.55 1018.70 1018.75 1018.78 1018.89 1018.98 1019.03 1019.15 1019.28 1019.36 1019.41 1019.47 1019.26 1018.73 1018.15 1017.67 1017.93 1018.54 1018.97 1019.63 1019.87 1019.88 1019.80 1019.91 1019.88 1019.89
1013.05 1014.37 1015.98 1017.11 1017.31 1017.43 1017.53 1017.66 1017.71 1017.90 1017.96 1018.04 1018.00 1017.98 1018.25 1018.50 1018.67 1018.68 1018.81 1019.02 1019.15 1019.19 1019.33 1019.38 1019.49 1019.61 1019.63 1019.69 1019.63 1019.46 1019.12 1018.64 1018.21 1018.68 1019.03 1019.47 1020.11 1020.10 1020.13 1020.15 1020.13 1020.15 1020.13
1013.91 1014.80 1015.52 1016.38 1017.42 1017.63 1017.81 1017.88 1017.91 1018.06 1018.26 1018.25 1018.21 1018.19 1018.14 1018.57 1018.89 1019.10 1019.33 1019.42 1019.47 1019.53 1019.58 1019.65 1019.78 1019.84 1019.89 1019.91 1019.79 1019.50 1019.01 1018.51 1017.87 1018.40 1018.85 1019.72 1020.42 1020.35 1020.37 1020.33 1020.27 1020.28 1020.22
1014.61 1015.18 1016.23 1016.06 1016.79 1016.93 1017.47 1018.12 1018.20 1018.18 1018.19 1018.20 1018.14 1018.06 1018.26 1018.65 1018.97 1019.53 1019.50 1019.65 1019.69 1019.80 1019.80 1019.78 1019.84 1019.87 1019.92 1019.93 1019.80 1019.61 1019.24 1018.68 1017.67 1018.45 1019.59 1020.35 1020.57 1020.43 1020.51 1020.51 1020.53 1020.52 1020.49
1014.73 1015.72 1015.03 1016.61 1016.51 1017.27 1017.47 1018.16 1018.32 1018.33 1018.17 1017.89 1017.63 1017.81 1017.69 1017.85 1018.49 1018.97 1019.51 1019.77 1019.87 1019.97 1019.98 1019.94 1019.80 1019.81 1019.95 1019.59 1019.44 1019.34 1019.21 1017.95 1017.99 1018.62 1019.77 1020.73 1020.66 1020.65 1020.67 1020.70 1020.72 1020.71 1020.68
1015.07 1015.31 1015.93 1015.71 1016.01 1016.49 1016.69 1017.73 1017.65 1017.93 1017.53 1016.76 1018.05 1018.04 1017.74 1017.64 1018.57 1018.77 1019.68 1019.92 1019.93 1019.91 1019.88 1019.71 1019.36 1019.39 1019.45 1018.60 1018.45 1018.90 1018.16 1018.50 1018.34 1019.03 1020.19 1020.75 1020.71 1020.73 1020.75 1020.78 1020.78 1020.75 1020.73
1014.82 1015.38 1016.09 1016.41 1016.25 1016.50 1016.98 1016.85 1016.99 1017.36 1017.22 1016.97 1017.84 1018.09 1017.38 1018.00 1018.37 1018.77 1019.54 1019.49 1019.49 1019.58 1019.11 1019.03 1018.87 1018.41 1017.97 1017.79 1017.92 1018.09 1018.30 1017.99 1018.13 1019.01 1020.36 1020.68 1020.67 1020.70 1020.75 1020.75 1020.73 1020.73 1020.68
1014.17 1015.42 1015.62 1015.73 1016.84 1016.79 1016.50 1016.23 1017.07 1017.53 1017.35 1017.59 1017.77 1017.22 1017.59 1017.95 1018.01 1018.32 1018.49 1018.92 1019.00 1018.52 1017.57 1018.14 1018.19 1018.60 1018.61 1018.13 1017.89 1017.77 1017.77 1017.78 1018.00 1018.87 1020.26 1020.66 1020.75 1020.73 1020.71 1020.72 1020.69 1020.67 1020.63
1014.33 1015.18 1015.46 1016.24 1017.47 1016.96 1016.44 1016.56 1017.40 1017.52 1018.18 1018.11 1017.85 1017.95 1018.99 1018.31 1018.69 1018.58 1018.79 1018.57 1018.47 1018.45 1018.14 1018.14 1018.14 1018.41 1018.47 1018.19 1018.17 1017.97 1018.32 1018.52 1018.26 1018.45 1019.66 1020.57 1020.65 1020.73 1020.77 1020.71 1020.64 1020.62 1020.57
1014.15 1014.79 1015.89 1016.97 1017.58 1017.03 1017.12 1017.23 1017.63 1018.53 1017.72 1017.96 1017.94 1018.43 1018.55 1018.51 1018.88 1019.27 1019.01 1018.77 1018.70 1018.63 1018.63 1018.65 1018.61 1018.08 1017.84 1018.28 1018.55 1018.33 1018.27 1018.64 1018.88 1018.41 1019.09 1020.13 1020.50 1020.65 1020.68 1020.61 1020.59 1020.54 1020.45
1014.36 1015.29 1016.06 1016.79 1016.94 1017.37 1017.65 1017.68 1017.55 1017.43 1017.78 1018.05 1018.36 1018.94 1019.14 1019.28 1019.37 1019.33 1019.08 1018.77 1018.72 1019.35 1019.16 1018.88 1018.56 1018.05 1017.88 1018.07 1018.63 1018.49 1018.56 1018.56 1018.98 1019.01 1018.39 1019.10 1020.03 1020.37 1020.41 1020.44 1020.48 1020.43 1020.33
1014.71 1015.77 1015.90 1016.05 1016.91 1017.37 1017.60 1017.53 1017.80 1018.05 1018.19 1018.24 1018.38 1019.08 1019.41 1019.73 1019.76 1019.45 1019.12 1018.76 1019.23 1018.86 1018.61 1018.17 1018.05 1017.83 1017.74 1017.85 1018.18 1017.95 1018.37 1018.43 1018.93 1018.95 1018.69 1018.50 1018.45 1019.02 1020.03 1020.18 1020.24 1020.17 1020.09
1015.29 1016.00 1015.83 1016.43 1016.88 1017.25 1018.04 1017.73 1017.69 1017.87 1018.13 1018.36 1018.42 1018.63 1019.41 1019.63 1019.78 1018.97 1018.69 1019.39 1019.65 1018.89 1018.34 1018.21 1018.17 1018.13 1018.09 1017.77 1017.87 1018.19 1018.28 1018.32 1018.37 1018.27 1018.85 1018.67 1019.01 1018.34 1018.49 1019.67 1019.74 1019.76 1019.69
1015.50 1016.09 1016.18 1016.63 1017.30 1017.61 1017.71 1017.89 1018.11 1018.23 1018.25 1018.05 1018.67 1019.29 1019.53 1019.53 1019.75 1019.38 1019.17 1019.56 1019.48 1018.82 1018.77 1018.75 1019.04 1018.38 1018.21 1018.09 1017.31 1017.85 1017.93 1018.17 1018.15 1018.23 1018.41 1018.11 1018.69 1018.72 1018.26 1018.83 1018.79 1018.93 1019.16
1015.19 1015.90 1016.69 1017.03 1017.72 1017.80 1018.05 1018.06 1018.21 1018.35 1018.40 1018.64 1019.01 1019.21 1019.61 1019.40 1019.77 1019.66 1019.57 1019.61 1019.26 1020.26 1019.23 1019.41 1019.50 1019.18 1018.42 1018.50 1017.88 1017.95 1018.26 1018.25 1018.17 1017.95 1017.64 1017.48 1018.22 1017.92 1018.15 1018.13 1018.43 1018.26 1018.68
1014.94 1015.83 1016.91 1017.13 1017.83 1017.89 1017.83 1017.74 1018.13 1018.55 1018.54 1018.75 1018.97 1019.35 1019.44 1019.59 1019.95 1019.73 1019.73 1019.39 1019.96 1019.74 1019.98 1019.82 1019.50 1018.73 1018.33 1018.64 1018.09 1017.41 1017.64 1017.73 1017.32 1017.36 1017.73 1017.65 1017.79 1017.51 1017.65 1018.01 1018.16 1018.24 1018.21
1014.67 1015.54 1016.59 1017.35 1017.95 1018.15 1018.22 1017.98 1018.41 1018.72 1018.83 1019.22 1019.34 1019.32 1019.51 1019.78 1019.79 1020.03 1020.08 1020.02 1019.60 1019.71 1020.01 1019.97 1019.47 1019.26 1018.67 1018.82 1018.81 1018.46 1017.34 1017.03 1017.26 1017.60 1017.99 1017.61 1018.09 1017.58 1017.52 1017.75 1017.76 1017.86 1017.99
1014.17 1015.16 1016.27 1017.06 1017.71 1018.16 1018.34 1018.33 1018.48 1019.04 1019.33 1019.09 1019.32 1019.08 1019.30 1019.59 1019.67 1020.10 1020.07 1020.21 1019.93 1021.26 1020.09 1019.81 1019.49 1019.39 1019.31 1018.59 1018.37 1018.57 1018.64 1018.14 1017.43 1017.18 1017.34 1017.68 1017.82 1017.48 1017.76 1017.38 1016.99 1017.25 1017.63
1013.67 1014.57 1015.62 1016.79 1017.53 1017.89 1018.33 1018.82 1018.73 1018.84 1018.77 1018.70 1018.83 1019.51 1019.80 1019.88 1019.75 1019.82 1020.20 1020.41 1020.28 1019.94 1019.85 1020.06 1020.03 1019.95 1019.20 1019.17 1018.39 1018.37 1018.54 1018.07 1017.80 1017.16 1016.76 1017.20 1017.39 1017.24 1017.26 1017.11 1017.18 1016.95 1017.18
1013.03 1013.96 1015.01 1016.46 1017.51 1017.97 1018.43 1018.89 1019.07 1019.07 1019.06 1019.28 1018.94 1019.22 1019.08 1019.35 1019.50 1019.78 1019.89 1020.10 1020.15 1020.03 1020.16 1020.16 1020.14 1020.26 1020.17 1019.70 1019.32 1018.97 1018.19 1018.48 1017.57 1017.39 1017.05 1017.31 1017.07 1017.17 1017.06 1016.91 1017.01 1017.11 1017.19
Wind_Speed
12 13 10 9 10 10 11 12 12 13 14 14 14 14 15 15 15 15 15 16 15 14 14 15 14 15 16 16 16 15 15 14 14 16 16 15 14 12 10 10 14 16 13
17 15 10 10 11 10 11 11 12 13 12 13 13 12 13 15 15 15 15 15 14 16 15 15 15 15 16 16 15 14 14 12 12 15 18 18 16 17 16 18 18 14 14
18 15 12 10 10 11 11 10 10 11 11 11 13 12 13 14 15 14 16 15 15 16 16 15 15 14 16 14 15 13 11 9 9 12 2 13 15 17 17 17 16 15 14
18 16 14 10 10 10 9 10 9 10 10 10 11 11 11 13 15 13 15 14 15 15 16 16 15 15 14 14 14 11 7 5 5 11 12 10 15 16 15 15 15 14 14
16 15 14 11 10 9 9 9 9 9 10 10 11 11 12 13 14 13 15 14 15 14 14 13 15 13 14 13 13 8 6 8 5 16 14 10 10 13 15 14 16 16 16
16 16 14 11 10 9 9 8 8 9 10 11 12 12 14 13 14 13 13 13 13 13 12 13 14 13 14 12 12 7 6 8 2 12 16 12 15 15 15 17 15 15 14
17 17 15 11 10 10 10 10 8 10 11 11 12 12 15 15 14 15 12 13 14 12 13 13 14 14 13 12 10 7 8 12 13 12 13 13 13 15 15 15 14 13 13
15 17 15 12 11 10 10 10 11 11 12 12 13 14 17 13 14 12 17 14 14 15 13 13 13 13 12 11 9 5 5 10 12 12 13 12 11 13 14 13 13 12 11
18 13 13 15 12 12 11 11 11 12 13 13 13 14 14 14 15 13 13 12 13 13 12 12 12 11 11 10 7 2 4 8 8 11 12 9 9 12 12 11 11 10 10
13 19 3 14 10 10 12 12 12 13 14 13 14 15 14 14 14 12 12 10 11 10 11 11 10 9 10 9 5 4 6 10 7 14 10 7 9 11 10 9 8 9 9
5 9 10 13 9 12 11 11 12 13 14 13 14 17 14 12 12 12 12 10 9 9 9 8 7 8 9 11 9 9 9 3 6 11 7 7 7 8 8 7 7 7 6
7 16 11 9 10 6 12 8 11 11 10 8 10 5 7 10 6 11 9 7 7 7 9 8 9 12 14 8 7 10 4 6 4 10 7 6 6 6 6 5 5 4 4
18 5 17 7 5 10 7 8 8 7 6 1 8 10 13 9 9 8 6 7 7 11 7 10 9 5 5 5 6 7 6 7 5 8 8 6 5 4 3 2 2 3 4
12 11 10 10 10 4 8 6 7 4 5 4 4 5 5 2 5 5 4 6 4 3 2 8 8 2 7 7 8 7 6 6 5 7 8 6 4 1 1 1 2 4 5
13 11 14 11 7 4 4 6 7 6 3 8 7 4 7 3 5 5 3 3 3 2 4 3 6 5 3 6 5 5 9 6 6 6 6 8 5 3 1 2 3 4 5
11 12 12 11 9 6 8 6 6 5 6 5 6 6 1 7 3 6 5 5 3 3 4 4 5 3 4 8 2 5 7 7 4 4 9 7 8 6 4 3 3 4 5
11 13 12 14 11 10 9 8 3 8 4 4 9 6 7 5 1 3 4 4 4 4 4 5 5 3 6 5 5 3 6 4 6 4 3 9 8 10 8 6 4 5 6
14 13 12 13 13 12 9 5 3 4 2 4 8 7 5 4 3 4 6 3 4 4 4 3 4 3 1 5 3 4 4 7 5 3 4 2 5 9 9 8 7 6 7
14 13 11 12 10 13 10 4 3 5 4 4 3 7 7 6 4 4 3 7 5 4 2 2 2 2 1 2 8 5 3 7 7 5 6 3 4 3 5 11 11 10 9
14 12 11 11 11 9 5 5 4 3 1 5 4 6 6 6 4 6 6 3 6 6 2 6 7 5 5 4 2 5 5 4 3 5 7 6 7 6 4 1 6 9 12
15 14 8 7 11 8 8 4 3 3 4 2 6 7 3 6 5 3 1 5 4 4 4 2 5 4 5 2 4 7 5 5 6 6 4 2 6 4 3 4 5 4 6
15 14 8 9 10 7 6 2 5 2 4 2 5 5 1 5 4 3 4 1 6 4 3 3 5 5 3 3 5 5 6 5 6 6 3 3 1 3 5 5 1 1 4
15 13 12 9 11 9 7 2 4 4 3 3 3 7 7 5 6 1 2 2 3 4 5 3 3 4 2 3 5 4 2 3 7 6 5 3 4 3 0 4 4 2 2
16 13 15 11 10 9 8 2 7 4 4 5 4 4 6 5 4 6 3 3 5 3 4 3 1 8 4 1 2 6 4 5 4 4 4 6 4 6 4 7 1 6 1
16 15 14 13 11 10 8 3 5 7 6 5 5 7 4 4 4 6 7 4 5 5 4 3 1 5 6 5 2 3 3 1 3 7 4 7 3 3 3 5 4 4 5
15 15 14 13 10 8 7 6 6 8 3 4 2 4 7 6 7 6 6 6 7 4 3 3 0 3 6 7 7 6 3 4 2 3 1 2 2 4 3 1 2 5 6
Wind_Direction
124 116 125 120 100 87 81 78 78 77 80 78 81 83 87 89 88 92 94 97 94 93 92 89 87 83 83 79 75 76 79 82 89 89 84 76 74 81 89 106 121 95 92
119 119 126 107 95 101 91 84 82 83 84 87 89 91 92 91 92 95 96 94 92 89 91 87 86 87 80 82 84 82 78 87 95 112 108 90 75 81 81 71 70 93 91
121 120 125 109 98 90 90 92 88 88 88 84 94 92 94 95 99 101 100 97 100 96 90 89 86 91 85 79 78 74 69 77 78 52 280 84 79 77 77 82 88 87 86
124 139 119 107 104 100 97 100 98 99 97 94 92 94 97 102 97 104 97 99 99 104 92 90 85 83 77 76 75 73 60 59 73 122 66 71 84 73 76 86 83 93 96
76 99 107 115 111 107 107 100 107 104 98 96 93 107 101 100 99 99 103 101 100 94 94 89 88 89 88 80 79 70 29 346 59 89 76 66 82 77 78 86 95 76 68
111 99 111 114 110 107 111 113 101 103 103 98 97 102 112 103 107 100 98 98 99 100 100 91 93 87 84 84 77 54 3 317 204 86 105 82 65 72 72 77 77 73 82
156 122 114 111 113 114 114 114 109 110 108 102 98 101 111 108 109 111 120 96 87 100 100 92 93 86 87 84 80 51 346 342 82 86 85 80 76 78 82 76 78 75 77
120 111 117 112 108 106 104 103 104 105 106 111 110 109 117 115 103 96 92 91 90 96 97 93 92 88 91 90 79 51 326 317 102 88 77 76 68 72 74 78 78 76 74
100 111 127 126 117 105 105 105 100 99 109 115 112 108 105 112 111 105 101 100 95 92 95 98 97 94 96 94 100 83 311 323 95 77 85 83 79 80 79 76 73 64 66
107 106 195 107 140 132 116 104 106 108 113 122 126 116 110 111 113 122 128 109 101 92 92 99 111 115 117 116 145 200 251 268 91 101 78 76 64 82 74 70 66 61 57
118 102 91 128 132 124 127 117 123 123 127 134 150 139 160 135 128 144 83 110 106 98 97 99 134 150 152 161 184 213 240 75 75 79 87 94 82 80 77 70 61 56 52
144 118 137 117 123 155 107 149 140 148 161 151 149 121 112 80 51 95 106 123 123 136 142 166 202 196 195 188 161 209 114 94 98 91 93 102 93 83 73 64 52 42 31
123 168 110 136 208 100 126 164 161 178 112 66 76 185 118 148 149 135 139 158 157 192 202 190 192 227 23 99 74 92 144 150 114 88 110 114 113 88 78 64 30 5 354
113 127 150 132 67 120 163 153 96 108 145 129 138 89 87 66 113 104 102 81 191 109 244 205 85 63 99 34 50 77 77 79 87 106 123 140 127 112 80 2 350 337 337
142 150 120 115 97 130 143 112 100 112 111 129 161 148 162 120 113 97 133 129 60 105 97 72 83 109 155 135 89 78 87 61 78 108 103 163 170 195 240 314 322 330 332
138 128 121 107 144 163 95 103 114 145 155 150 127 99 101 112 111 137 176 150 119 58 43 59 11 150 147 115 76 62 93 103 52 75 129 142 180 194 213 239 278 306 306
138 124 151 150 134 124 137 158 181 151 142 122 100 155 73 122 182 133 73 190 106 96 174 154 216 197 133 109 108 157 104 122 111 152 139 141 151 191 202 213 240 272 284
128 141 166 133 142 156 110 179 105 118 167 126 141 144 137 119 164 253 199 139 96 235 201 169 231 100 123 96 77 132 98 119 130 173 96 98 144 140 182 200 212 241 266
133 154 155 135 145 124 157 168 123 159 138 153 142 130 125 144 170 250 153 86 231 247 209 223 93 336 132 120 149 142 133 125 204 112 123 199 95 329 124 178 205 220 240
145 161 143 159 133 144 176 166 147 137 178 167 110 102 148 123 151 270 92 145 247 220 126 47 358 24 358 339 5 85 122 133 139 157 147 182 128 182 164 249 227 199 215
153 162 143 134 147 167 166 194 168 155 151 130 97 119 135 147 129 247 218 211 221 182 32 187 194 206 261 183 304 144 117 170 195 165 185 190 135 204 95 131 262 1 181
157 155 151 152 162 204 177 221 69 101 114 123 108 129 156 125 161 187 304 170 60 100 96 337 319 287 128 30 270 168 158 179 170 145 154 197 50 150 149 186 116 158 290
157 163 169 164 169 205 302 157 144 66 75 77 163 166 167 172 207 347 225 344 277 279 172 213 257 315 313 107 326 305 357 167 148 153 197 131 181 190 217 190 224 180 294
158 170 157 183 170 197 222 194 145 190 196 180 219 156 129 204 175 180 192 230 267 126 122 173 198 325 12 207 160 59 358 359 341 150 150 109 205 219 76 288 144 154 289
171 164 163 173 176 176 206 252 165 224 191 181 191 104 135 191 190 206 166 207 261 293 95 360 331 325 318 324 54 131 334 162 337 333 157 148 181 193 165 226 12 311 88
167 165 160 161 175 193 197 190 224 299 77 66 92 177 190 188 173 210 186 186 205 256 158 207 259 282 348 350 344 315 344 56 234 332 335 223 20 136 339 84 16 10 2